DAL864 PAFA-PAOM

Flight info

Callsign DAL864
Flight time 1h 21m
Altitude 38000
Route FAI J122 OME
Aircraft A320/M-SDE3FGHIRWY/LB1

Departure

Time 2026-04-30 13:31
Airport Fairbanks International Airport (PAFA)

Arrival

Time 2026-04-30 14:52
Airport Nome Airport (PAOM)
Time Latitude Longitude Altitude Speed Heading
2026-04-30 12:53 64.81664 -147.86935 436 ft 0 kts 41°
2026-04-30 13:23 64.81651 -147.86961 425 ft 2 kts 41°
2026-04-30 13:23 64.81626 -147.87015 428 ft 2 kts 85°
2026-04-30 13:24 64.81627 -147.87039 436 ft 0 kts 120°
2026-04-30 13:26 64.81569 -147.86959 421 ft 14 kts 135°
2026-04-30 13:26 64.81394 -147.86836 435 ft 19 kts 216°
2026-04-30 13:27 64.81155 -147.87280 431 ft 24 kts 218°
2026-04-30 13:28 64.80731 -147.88059 436 ft 27 kts 218°
2026-04-30 13:28 64.80446 -147.88581 436 ft 16 kts 218°
2026-04-30 13:28 64.80409 -147.88649 431 ft 0 kts 218°
2026-04-30 13:29 64.80401 -147.88664 436 ft 7 kts 218°
2026-04-30 13:29 64.80310 -147.88508 430 ft 0 kts 40°
2026-04-30 13:30 64.81333 -147.86628 438 ft 148 kts 38°
2026-04-30 13:31 64.83152 -147.83284 1260 ft 181 kts 37°
2026-04-30 13:31 64.86726 -147.79538 3067 ft 210 kts 339°
2026-04-30 13:32 64.88236 -147.85258 3839 ft 239 kts 262°
2026-04-30 13:32 64.86328 -147.91740 5343 ft 255 kts 214°
2026-04-30 13:33 64.83275 -147.96201 7192 ft 260 kts 212°
2026-04-30 13:33 64.80463 -148.01538 8896 ft 269 kts 241°
2026-04-30 13:34 64.80002 -148.05771 9743 ft 273 kts 270°
2026-04-30 13:34 64.80407 -148.19603 11458 ft 310 kts 273°
2026-04-30 13:35 64.80527 -148.24795 11904 ft 324 kts 272°
2026-04-30 13:35 64.80749 -148.35513 13456 ft 332 kts 272°
2026-04-30 13:36 64.80963 -148.46555 14826 ft 341 kts 271°
2026-04-30 13:36 64.81066 -148.52050 15525 ft 343 kts 271°
2026-04-30 13:36 64.81272 -148.63273 16980 ft 346 kts 271°
2026-04-30 13:37 64.81375 -148.68921 17707 ft 347 kts 271°
2026-04-30 13:37 64.81574 -148.80293 19064 ft 349 kts 271°
2026-04-30 13:38 64.81767 -148.91683 20441 ft 348 kts 270°
2026-04-30 13:38 64.81861 -148.97371 21142 ft 348 kts 270°
2026-04-30 13:38 64.82043 -149.08713 22496 ft 348 kts 270°
2026-04-30 13:39 64.82211 -149.20068 23757 ft 348 kts 270°
2026-04-30 13:39 64.82368 -149.31573 24698 ft 352 kts 270°
2026-04-30 13:40 64.82443 -149.37276 25050 ft 356 kts 270°
2026-04-30 13:40 64.82519 -149.43108 25449 ft 359 kts 270°
2026-04-30 13:40 64.82594 -149.48984 25856 ft 361 kts 270°
2026-04-30 13:40 64.82665 -149.54884 26258 ft 363 kts 270°
2026-04-30 13:41 64.82735 -149.60823 26651 ft 365 kts 270°
2026-04-30 13:41 64.82804 -149.66791 27044 ft 366 kts 270°
2026-04-30 13:41 64.82871 -149.72786 27424 ft 368 kts 270°
2026-04-30 13:41 64.82938 -149.78820 27811 ft 370 kts 270°
2026-04-30 13:42 64.83002 -149.84887 28185 ft 372 kts 270°
2026-04-30 13:42 64.83064 -149.90974 28552 ft 374 kts 269°
2026-04-30 13:42 64.83175 -150.03176 29460 ft 372 kts 269°
2026-04-30 13:43 64.83226 -150.09255 29855 ft 372 kts 269°
2026-04-30 13:43 64.83273 -150.15427 30171 ft 374 kts 269°
2026-04-30 13:43 64.83317 -150.21549 30393 ft 377 kts 269°
2026-04-30 13:43 64.83363 -150.27736 30580 ft 381 kts 269°
2026-04-30 13:44 64.83407 -150.34006 30742 ft 385 kts 269°
2026-04-30 13:44 64.83449 -150.40323 30927 ft 388 kts 269°
2026-04-30 13:44 64.83489 -150.46694 31114 ft 391 kts 269°
2026-04-30 13:44 64.83525 -150.53108 31295 ft 394 kts 269°
2026-04-30 13:45 64.83593 -150.66038 31775 ft 397 kts 269°
2026-04-30 13:45 64.83625 -150.72537 32019 ft 398 kts 268°
2026-04-30 13:45 64.83652 -150.79054 32254 ft 400 kts 268°
2026-04-30 13:46 64.83677 -150.85595 32494 ft 401 kts 268°
2026-04-30 13:46 64.83698 -150.92157 32731 ft 403 kts 268°
2026-04-30 13:46 64.83714 -150.98758 32978 ft 404 kts 268°
2026-04-30 13:46 64.83728 -151.05369 33213 ft 405 kts 268°
2026-04-30 13:47 64.83738 -151.11999 33460 ft 407 kts 268°
2026-04-30 13:47 64.83744 -151.18576 33721 ft 409 kts 268°
2026-04-30 13:47 64.83748 -151.25274 33921 ft 411 kts 268°
2026-04-30 13:47 64.83750 -151.32008 34127 ft 413 kts 268°
2026-04-30 13:48 64.83751 -151.38759 34335 ft 414 kts 268°
2026-04-30 13:48 64.83749 -151.45520 34545 ft 415 kts 268°
2026-04-30 13:48 64.83743 -151.52302 34749 ft 415 kts 268°
2026-04-30 13:48 64.83734 -151.59091 34948 ft 416 kts 268°
2026-04-30 13:49 64.83721 -151.65898 35147 ft 416 kts 267°
2026-04-30 13:49 64.83706 -151.72684 35405 ft 415 kts 267°
2026-04-30 13:49 64.83688 -151.79463 35613 ft 415 kts 267°
2026-04-30 13:49 64.83665 -151.86255 35801 ft 416 kts 267°
2026-04-30 13:50 64.83639 -151.93061 35924 ft 417 kts 267°
2026-04-30 13:50 64.83548 -152.13376 35964 ft 414 kts 267°
2026-04-30 13:51 64.83470 -152.26928 35959 ft 415 kts 266°
2026-04-30 13:51 64.83377 -152.40505 35958 ft 416 kts 266°
2026-04-30 13:52 64.83278 -152.53991 35958 ft 415 kts 266°
2026-04-30 13:52 64.83162 -152.67552 35956 ft 415 kts 266°
2026-04-30 13:53 64.83031 -152.81113 35959 ft 415 kts 266°
2026-04-30 13:53 64.82894 -152.94681 35960 ft 415 kts 266°
2026-04-30 13:54 64.82746 -153.08256 35967 ft 416 kts 266°
2026-04-30 13:54 64.82582 -153.21852 35957 ft 417 kts 266°
2026-04-30 13:55 64.82399 -153.35456 35938 ft 417 kts 265°
2026-04-30 13:55 64.82201 -153.49053 35949 ft 416 kts 265°
2026-04-30 13:56 64.81994 -153.62627 35961 ft 416 kts 265°
2026-04-30 13:56 64.81787 -153.76206 35962 ft 416 kts 265°
2026-04-30 13:57 64.81571 -153.89761 35961 ft 415 kts 265°
2026-04-30 13:57 64.81333 -154.03304 35961 ft 415 kts 265°
2026-04-30 13:58 64.80950 -154.23593 35959 ft 414 kts 265°
2026-04-30 13:59 64.80680 -154.37099 35954 ft 414 kts 264°
2026-04-30 13:59 64.80393 -154.50605 35953 ft 414 kts 264°
2026-04-30 14:00 64.80098 -154.64100 35952 ft 414 kts 264°
2026-04-30 14:00 64.79637 -154.84316 35965 ft 414 kts 264°
2026-04-30 14:01 64.79319 -154.97815 35939 ft 415 kts 264°
2026-04-30 14:01 64.78985 -155.11325 35922 ft 415 kts 264°
2026-04-30 14:02 64.78633 -155.24825 35925 ft 415 kts 264°
2026-04-30 14:02 64.78270 -155.38314 35927 ft 415 kts 263°
2026-04-30 14:03 64.77895 -155.51807 35929 ft 415 kts 263°
2026-04-30 14:03 64.77509 -155.65292 35960 ft 415 kts 263°
2026-04-30 14:04 64.77108 -155.78787 35982 ft 415 kts 263°
2026-04-30 14:04 64.76702 -155.92292 35959 ft 416 kts 263°
2026-04-30 14:05 64.76280 -156.05811 35948 ft 416 kts 263°
2026-04-30 14:05 64.75846 -156.19349 35945 ft 417 kts 263°
2026-04-30 14:06 64.75168 -156.39647 35934 ft 417 kts 263°
2026-04-30 14:07 64.74458 -156.59935 35930 ft 417 kts 262°
2026-04-30 14:08 64.73742 -156.80241 35940 ft 418 kts 264°
2026-04-30 14:08 64.73660 -157.00681 35924 ft 419 kts 268°
2026-04-30 14:09 64.73732 -157.14330 35922 ft 419 kts 267°
2026-04-30 14:10 64.73672 -157.34792 35906 ft 419 kts 266°
2026-04-30 14:10 64.73578 -157.48429 35853 ft 419 kts 266°
2026-04-30 14:11 64.73504 -157.59749 35878 ft 419 kts 266°
2026-04-30 14:11 64.73405 -157.73398 35887 ft 420 kts 266°
2026-04-30 14:12 64.73294 -157.87066 35906 ft 421 kts 266°
2026-04-30 14:12 64.73177 -158.00758 35904 ft 421 kts 265°
2026-04-30 14:13 64.73044 -158.14474 35905 ft 422 kts 265°
2026-04-30 14:13 64.72895 -158.28201 35908 ft 422 kts 265°
2026-04-30 14:14 64.72733 -158.42016 35871 ft 422 kts 265°
2026-04-30 14:14 64.72559 -158.55749 35805 ft 423 kts 265°
2026-04-30 14:15 64.72370 -158.69515 35788 ft 424 kts 265°
2026-04-30 14:15 64.72170 -158.83303 35894 ft 424 kts 265°
2026-04-30 14:16 64.71963 -158.97104 35909 ft 424 kts 265°
2026-04-30 14:16 64.71742 -159.10898 35911 ft 424 kts 264°
2026-04-30 14:17 64.71505 -159.24682 35904 ft 424 kts 264°
2026-04-30 14:17 64.71248 -159.38482 35928 ft 425 kts 264°
2026-04-30 14:18 64.70983 -159.52296 35899 ft 426 kts 264°
2026-04-30 14:18 64.70564 -159.73052 35885 ft 426 kts 264°
2026-04-30 14:19 64.70109 -159.93829 35876 ft 427 kts 264°
2026-04-30 14:20 64.69792 -160.07673 35876 ft 427 kts 264°
2026-04-30 14:20 64.69293 -160.28457 35885 ft 427 kts 264°
2026-04-30 14:21 64.68939 -160.42332 35858 ft 428 kts 263°
2026-04-30 14:22 64.68389 -160.63188 35847 ft 429 kts 263°
2026-04-30 14:22 64.67812 -160.84070 35853 ft 429 kts 263°
2026-04-30 14:23 64.66995 -161.11856 35876 ft 428 kts 263°
2026-04-30 14:24 64.66342 -161.32687 35835 ft 429 kts 263°
2026-04-30 14:25 64.65430 -161.60492 35823 ft 430 kts 262°
2026-04-30 14:26 64.64955 -161.74406 35640 ft 430 kts 262°
2026-04-30 14:26 64.64714 -161.81361 35150 ft 431 kts 262°
2026-04-30 14:26 64.64204 -161.95378 33692 ft 432 kts 262°
2026-04-30 14:27 64.63945 -162.02305 33118 ft 427 kts 262°
2026-04-30 14:27 64.63694 -162.09168 32570 ft 422 kts 262°
2026-04-30 14:27 64.63447 -162.15932 32033 ft 416 kts 262°
2026-04-30 14:28 64.62952 -162.29238 31001 ft 407 kts 261°
2026-04-30 14:28 64.62704 -162.35679 30489 ft 402 kts 261°
2026-04-30 14:28 64.62449 -162.42139 29992 ft 398 kts 260°
2026-04-30 14:28 64.62190 -162.48529 29429 ft 393 kts 260°
2026-04-30 14:29 64.61676 -162.61098 28465 ft 381 kts 260°
2026-04-30 14:29 64.61262 -162.71191 27700 ft 372 kts 260°
2026-04-30 14:30 64.60456 -162.90704 26277 ft 356 kts 259°
2026-04-30 14:31 64.59965 -163.02051 25456 ft 348 kts 259°
2026-04-30 14:31 64.59474 -163.13146 24610 ft 341 kts 259°
2026-04-30 14:31 64.59230 -163.18604 24203 ft 337 kts 259°
2026-04-30 14:32 64.58746 -163.29368 23379 ft 332 kts 259°
2026-04-30 14:32 64.58503 -163.34680 22916 ft 329 kts 259°
2026-04-30 14:32 64.58263 -163.39937 22500 ft 325 kts 259°
2026-04-30 14:33 64.58025 -163.45134 22088 ft 321 kts 259°
2026-04-30 14:33 64.57542 -163.55390 21279 ft 317 kts 259°
2026-04-30 14:33 64.57302 -163.60474 20872 ft 316 kts 259°
2026-04-30 14:34 64.57060 -163.65541 20474 ft 315 kts 259°
2026-04-30 14:34 64.56814 -163.70602 20081 ft 314 kts 259°
2026-04-30 14:34 64.56565 -163.75665 19664 ft 315 kts 259°
2026-04-30 14:34 64.56316 -163.80728 19255 ft 315 kts 259°
2026-04-30 14:35 64.55903 -163.89212 18585 ft 314 kts 259°
2026-04-30 14:35 64.55575 -163.95892 18054 ft 314 kts 259°
2026-04-30 14:35 64.55324 -164.00954 17615 ft 315 kts 259°
2026-04-30 14:36 64.55072 -164.05990 17225 ft 313 kts 259°
2026-04-30 14:36 64.54818 -164.11001 16830 ft 311 kts 259°
2026-04-30 14:36 64.54563 -164.15994 16446 ft 310 kts 259°
2026-04-30 14:36 64.54305 -164.20961 16058 ft 309 kts 259°
2026-04-30 14:37 64.54045 -164.25909 15675 ft 308 kts 259°
2026-04-30 14:37 64.53783 -164.30848 15293 ft 308 kts 259°
2026-04-30 14:37 64.53520 -164.35790 14912 ft 308 kts 259°
2026-04-30 14:37 64.53257 -164.40729 14524 ft 308 kts 259°
2026-04-30 14:38 64.52996 -164.45660 14146 ft 308 kts 260°
2026-04-30 14:38 64.52734 -164.50595 13756 ft 308 kts 260°
2026-04-30 14:38 64.52466 -164.55532 13346 ft 308 kts 260°
2026-04-30 14:38 64.52197 -164.60471 12948 ft 308 kts 260°
2026-04-30 14:39 64.51929 -164.65386 12547 ft 306 kts 260°
2026-04-30 14:39 64.51660 -164.70288 12156 ft 305 kts 260°
2026-04-30 14:39 64.51388 -164.75171 11768 ft 304 kts 260°
2026-04-30 14:40 64.50842 -164.84885 10969 ft 302 kts 260°
2026-04-30 14:40 64.50571 -164.89705 10635 ft 299 kts 260°
2026-04-30 14:40 64.50306 -164.94425 10469 ft 290 kts 259°
2026-04-30 14:40 64.50048 -164.98993 10253 ft 283 kts 259°
2026-04-30 14:41 64.49791 -165.03496 10051 ft 281 kts 259°
2026-04-30 14:41 64.49526 -165.08002 9765 ft 283 kts 259°
2026-04-30 14:41 64.49260 -165.12543 9316 ft 284 kts 259°
2026-04-30 14:41 64.48905 -165.17018 8944 ft 279 kts 249°
2026-04-30 14:42 64.48188 -165.21130 8609 ft 271 kts 234°
2026-04-30 14:42 64.46970 -165.24340 8286 ft 263 kts 219°
2026-04-30 14:42 64.45612 -165.27146 7956 ft 261 kts 217°
2026-04-30 14:42 64.44265 -165.29863 7617 ft 260 kts 217°
2026-04-30 14:43 64.42884 -165.32639 7215 ft 259 kts 217°
2026-04-30 14:43 64.41525 -165.35359 6819 ft 257 kts 215°
2026-04-30 14:43 64.40131 -165.37822 6440 ft 255 kts 212°
2026-04-30 14:43 64.38704 -165.40229 6043 ft 253 kts 212°
2026-04-30 14:44 64.37283 -165.42610 5640 ft 252 kts 212°
2026-04-30 14:44 64.35866 -165.44967 5237 ft 251 kts 212°
2026-04-30 14:44 64.34451 -165.47307 4837 ft 250 kts 212°
2026-04-30 14:44 64.33037 -165.49628 4438 ft 249 kts 212°
2026-04-30 14:45 64.31627 -165.51933 4029 ft 248 kts 212°
2026-04-30 14:45 64.30307 -165.54501 3620 ft 251 kts 229°
2026-04-30 14:45 64.29553 -165.58092 3532 ft 254 kts 256°
2026-04-30 14:45 64.29566 -165.62179 3552 ft 260 kts 285°
2026-04-30 14:46 64.30423 -165.65806 3556 ft 260 kts 315°
2026-04-30 14:46 64.31901 -165.68118 3428 ft 259 kts 340°
2026-04-30 14:46 64.33571 -165.69599 3085 ft 255 kts 342°
2026-04-30 14:46 64.34693 -165.70550 2856 ft 254 kts 342°
2026-04-30 14:47 64.36896 -165.72257 2383 ft 249 kts 353°
2026-04-30 14:47 64.38559 -165.72172 2210 ft 232 kts 18°
2026-04-30 14:47 64.39961 -165.70675 2074 ft 215 kts 41°
2026-04-30 14:47 64.40964 -165.68275 1943 ft 200 kts 54°
2026-04-30 14:48 64.41806 -165.65886 1803 ft 186 kts 53°
2026-04-30 14:48 64.42602 -165.63634 1701 ft 171 kts 54°
2026-04-30 14:48 64.43313 -165.61629 1548 ft 151 kts 54°
2026-04-30 14:48 64.43938 -165.59863 1560 ft 135 kts 54°
2026-04-30 14:49 64.44526 -165.58198 1621 ft 132 kts 54°
2026-04-30 14:49 64.45153 -165.56660 1578 ft 133 kts 45°
2026-04-30 14:49 64.45842 -165.55257 1364 ft 131 kts 45°
2026-04-30 14:49 64.46521 -165.53856 1156 ft 130 kts 45°
2026-04-30 14:50 64.47867 -165.51081 796 ft 129 kts 44°
2026-04-30 14:50 64.48532 -165.49701 631 ft 128 kts 43°
2026-04-30 14:51 64.49629 -165.47392 372 ft 127 kts 42°
2026-04-30 14:51 64.50305 -165.46058 200 ft 128 kts 43°
2026-04-30 14:51 64.51457 -165.43653 44 ft 54 kts 42°
2026-04-30 14:52 64.51592 -165.43336 45 ft 17 kts 65°
2026-04-30 14:52 64.51579 -165.43418 46 ft 6 kts 217°
2026-04-30 14:52 64.51548 -165.43475 45 ft 6 kts 220°
2026-04-30 14:53 64.51420 -165.43730 41 ft 20 kts 219°
2026-04-30 14:53 64.51332 -165.43752 43 ft 12 kts 134°
2026-04-30 14:54 64.51189 -165.43727 41 ft 0 kts 209°